Location: Arcones
(41.1182°N, 3.7238°W)
Time: 07:27:08
(UTC+00:00)

Cosmos 2263 Rocket - Pass Details

Date: 21 March 2026
Orbit: 823 x 846 km, 71.0° (Epoch: 18 April)

Event Time Altitude Azimuth Distance (km) Brightness Sun altitude
Rises 20:22:01 0° 349° (N) 3,394 5.8 -21.8°
Reaches altitude 10° 20:25:28 10° 10° (N) 2,451 4.7 -22.4°
Enters shadow 20:28:32 16° 43° (NE) 2,033 4.0 -22.9°
